User: anonymous   Login
Location: Chanteloup
(48.8560°N, 2.7390°E)
Time: 01:25:52
(UTC+00:00)
Language:

Meteor 1-4 Rocket - Orbit

View from above orbital plane
View from above orbital plane
View from above satellite
View from above satellite

Ground track
Ground track

The orbit data is extracted from the following two-line orbital elements,

1 04394U 70037B   22019.53357086  .00004979  00000-0  15807-3 0  9991
2 04394  81.2396 200.6673 0037442 141.8435 218.5464 15.31734275821651
Epoch (UTC): 19 January 2022 12:48:20
Eccentricity: 0.0037442
inclination: 81.2396°
perigee height: 445 km
apogee height: 496 km
right ascension of ascending node: 200.6673°
argument of perigee: 141.8435°
revolutions per day: 15.31734275
mean anomaly at epoch: 218.5464°
orbit number at epoch: 82165

The dashed part of the orbit path shows where the satellite is in the earth's shadow,  

DLR